STARLINK-1803 (46703 NORAD) Tracking and Keplerian Element Data

This shows tracking and keplerian element data for the satellite.

Feedback or suggestion? Click here.




ElementValue
Catalog46703
NameSTARLINK-1803
Epoch Orbit656
Epoch Day331.16668981
Epoch Year2020
RAAN279.123
Inclination53.0554
Eccentricity0.0001102
Argument of Perigee56.7384
Mean Anonmoly53.1468
Mean Motion15.62807782
Decay Rate-0.0007778
L11 46703U 20073AK 20331.16668981 -.00077780 00000-0 -84997-3 0 9997
L22 46703 53.0554 279.1230 0001102 56.7384 53.1468 15.62807782 6565

Live tracking and technical data element details for STARLINK-1803 (NORAD 46703). STARLINK-1803 can be tracked NOW for your location showing map with azimuth and elevation plus other details from your city location.

Track the satellite on the map from your city or location and see movement details for azimuth, elevation, latitude, longitude, range, height, and movement on the map or in text.







IsCatalogInMostPopularTable: catalog: 46703, numindb: 11
Update: records affected: 1



GetName: 46703 STARLINK-1803

Hit Count: updated at: Thu, 26 Nov 2020 23:20:59 GMT